Location: Unspecified
(0.0000°N, 0.0000°E)
Time: 03:26:11
(UTC+00:00)

Vanguard 2 - Pass Details

Date: 19 December 2018
Orbit: 553 x 2939 km, 32.9° (Epoch: 18 March)

Event Time Altitude Azimuth Distance (km) Brightness Sun altitude
Rises 05:06:48 0° 274° (W) 5,935 - -11.5°
Exits shadow 05:09:33 - 269° (W) 5,451 11.3 -10.9°
Reaches altitude 10° 05:11:03 10° 265° (W) 5,207 11.2 -10.5°
Maximum altitude 05:24:52 33° 207° (SSW) 4,111 11.2 -7.4°
Drops below altitude 10° 05:39:56 10° 149° (SSE) 5,599 12.9 -3.9°
Sets 05:44:50 0° 139° (SE) 6,413 13.6 -2.8°
